Date String (YYYY-MM-DD hh:mm:ss) UTC,Instrument flags,Ambient pressure (hPa),Sample flow (lpm),Bypass flow (lpm),Sample temperature (°C),Ambient temperature (°C),ASC tube jacket temperature (°C),LED temperature (°C),Box temperature (°C),Sample RH (%),Span deviation,Mass concentration (μg/m³),Mass concentration (μg/m³),Mass concentration (μg/m³)
DateTimeUTC,F1_M11,P_M11,Q1_M11,Q2_M11,T1_M11,T2_M11,T3_M11,T4_M11,T5_M11,U1_M11,ZSPAN_M11,X0_M11,X2_M11,X1_M11
2021-10-24 01:00:00,,0816.5,5.00,0.00,29.9,27.9,00.0,39.2,31.5,09.7,0000.0,0019.34,0005.36,0003.75
2021-10-24 01:01:00,,0816.5,5.00,0.00,29.9,28.2,00.0,39.1,31.6,09.7,0000.0,0019.17,0005.33,0003.72
2021-10-24 01:02:00,,0816.7,4.99,0.00,29.9,28.4,00.0,39.1,31.6,09.6,0000.0,0018.51,0005.19,0003.65
2021-10-24 01:03:00,,0816.8,5.00,0.00,30.0,28.5,00.0,39.1,31.7,09.6,0000.0,0017.97,0004.96,0003.53
2021-10-24 01:04:00,,0816.7,5.01,0.00,30.0,28.7,00.0,39.1,31.7,09.6,0000.0,0017.67,0004.78,0003.42
2021-10-24 01:05:00,,0816.6,4.99,0.00,30.0,28.8,00.0,39.1,31.7,09.5,0000.0,0018.20,0004.66,0003.34
2021-10-24 01:06:00,,0817.0,5.01,0.00,30.0,28.9,00.0,39.1,31.8,09.5,0000.0,0017.67,0004.70,0003.33
2021-10-24 01:07:00,,0817.0,5.00,0.00,30.0,29.0,00.0,39.1,31.7,09.7,0000.0,0016.86,0004.64,0003.30
2021-10-24 01:08:00,,0816.8,5.01,0.00,30.0,29.0,00.0,39.1,31.7,10.1,0000.0,0016.42,0004.69,0003.36
2021-10-24 01:09:00,,0816.9,4.98,0.00,30.1,29.1,00.0,39.1,31.8,10.1,0000.0,0016.15,0004.70,0003.42
2021-10-24 01:10:00,,0816.9,5.01,0.00,30.1,29.1,00.0,39.1,31.9,10.1,0000.0,0016.74,0004.70,0003.45
2021-10-24 01:11:00,,0816.9,5.00,0.00,30.1,29.1,00.0,39.1,31.9,10.5,0000.0,0018.45,0004.88,0003.59
2021-10-24 01:12:00,,0816.9,5.01,0.00,30.1,29.1,00.0,39.2,31.8,10.7,0000.0,0022.22,0005.32,0003.87
2021-10-24 01:13:00,,0816.8,4.99,0.00,30.1,29.2,00.0,39.1,31.8,10.7,0000.0,0023.59,0005.81,0004.16
2021-10-24 01:14:00,,0816.9,5.00,0.00,30.1,29.2,00.0,39.1,31.8,10.4,0000.0,0025.14,0006.31,0004.45
2021-10-24 01:15:00,,0817.3,5.01,0.00,30.1,29.1,00.0,39.2,31.9,10.2,0000.0,0026.33,0006.64,0004.71
2021-10-24 01:16:00,,0816.9,5.00,0.00,30.1,29.1,00.0,39.2,31.8,10.4,0000.0,0026.44,0006.96,0004.93
2021-10-24 01:17:00,,0816.9,4.99,0.00,30.0,29.1,00.0,39.2,31.7,10.8,0000.0,0027.64,0007.47,0005.32
2021-10-24 01:18:00,,0817.0,5.00,0.00,30.0,29.1,00.0,39.2,31.8,10.9,0000.0,0028.58,0008.00,0005.72
2021-10-24 01:19:00,,0817.3,5.01,0.00,30.0,29.1,00.0,39.2,31.7,11.0,0000.0,0030.64,0008.52,0006.07
2021-10-24 01:20:00,,0817.2,5.00,0.00,30.0,29.1,00.0,39.2,31.7,11.0,0004.3,0031.13,0009.03,0006.36
2021-10-24 01:21:00,,0817.3,4.99,0.00,30.0,29.1,00.0,39.2,31.7,11.0,0004.9,0031.39,0009.59,0006.69
2021-10-24 01:22:00,,0817.0,5.01,0.00,29.9,29.1,00.0,39.1,31.7,11.0,0006.0,0031.07,0010.04,0006.96
2021-10-24 01:23:00,,0817.2,5.00,0.00,29.9,29.0,00.0,39.1,31.7,10.9,0005.9,0029.01,0010.18,0007.07
2021-10-24 01:24:00,,0816.9,5.01,0.00,29.9,29.1,00.0,39.1,31.7,10.9,0005.7,0028.60,0010.17,0007.13
2021-10-24 01:25:00,,0817.0,4.99,0.00,29.9,29.1,00.0,39.1,31.7,10.8,0005.5,0029.80,0010.23,0007.24
2021-10-24 01:26:00,,0817.0,5.01,0.00,30.0,29.1,00.0,39.1,31.7,10.6,0005.5,0031.86,0010.54,0007.38
2021-10-24 01:27:00,,0817.1,5.00,0.00,30.0,29.1,00.0,39.1,31.7,10.8,0005.6,0032.77,0010.85,0007.56
2021-10-24 01:28:00,,0817.1,5.00,0.00,30.0,29.2,00.0,39.1,31.7,10.9,0005.2,0033.85,0010.87,0007.59
2021-10-24 01:29:00,,0817.0,5.00,0.00,30.0,29.1,00.0,39.1,31.7,10.7,0004.8,0035.61,0010.87,0007.58
2021-10-24 01:30:00,,0817.0,4.99,0.00,29.9,29.1,00.0,39.1,31.7,10.6,0004.8,0035.42,0010.82,0007.56
2021-10-24 01:31:00,,0817.0,5.02,0.00,29.9,29.1,00.0,39.1,31.6,10.5,0004.8,0035.26,0010.73,0007.52
2021-10-24 01:32:00,,0817.0,4.99,0.00,29.9,29.0,00.0,39.1,31.6,10.7,0004.7,0035.38,0010.59,0007.48
2021-10-24 01:33:00,,0817.1,5.00,0.00,29.9,29.0,00.0,39.1,31.6,10.9,0003.9,0036.09,0010.60,0007.47
2021-10-24 01:34:00,,0817.1,5.01,0.00,29.8,29.0,00.0,39.1,31.6,10.9,0002.8,0035.38,0010.58,0007.45
2021-10-24 01:35:00,,0817.1,5.00,0.00,29.8,29.0,00.0,39.1,31.5,10.8,0002.8,0036.12,0010.66,0007.44
2021-10-24 01:36:00,,0817.1,4.99,0.00,29.8,28.9,00.0,39.0,31.5,10.9,0003.2,0036.43,0010.75,0007.45
2021-10-24 01:37:00,,0817.1,5.00,0.00,29.8,28.9,00.0,39.0,31.5,10.8,0003.3,0035.12,0010.75,0007.47
2021-10-24 01:38:00,,0817.1,5.00,0.00,29.8,29.0,00.0,39.0,31.5,10.8,0003.5,0034.96,0010.67,0007.45
2021-10-24 01:39:00,,0817.1,5.01,0.00,29.8,29.0,00.0,39.0,31.5,10.6,0004.0,0033.52,0010.52,0007.37
2021-10-24 01:40:00,,0817.1,5.01,0.00,29.8,29.0,00.0,39.0,31.5,10.3,0004.0,0031.31,0010.23,0007.15
2021-10-24 01:41:00,,0817.2,5.00,0.00,29.8,29.0,00.0,39.0,31.5,10.4,0003.3,0029.28,0009.94,0006.89
2021-10-24 01:42:00,,0817.2,5.00,0.00,29.8,29.0,00.0,39.0,31.5,10.4,0000.6,0029.20,0009.62,0006.70
2021-10-24 01:43:00,,0817.2,4.99,0.00,29.8,29.0,00.0,39.0,31.5,10.3,0000.0,0029.25,0009.43,0006.55
2021-10-24 01:44:00,,0817.2,5.00,0.00,29.8,28.9,00.0,39.0,31.5,10.4,0000.0,0028.00,0009.18,0006.43
2021-10-24 01:45:00,,0817.2,5.00,0.00,29.8,29.0,00.0,39.0,31.5,10.4,0000.3,0028.30,0009.01,0006.33
2021-10-24 01:46:00,,0817.2,5.01,0.00,29.8,29.0,00.0,39.0,31.5,10.6,0001.3,0027.72,0008.88,0006.26
2021-10-24 01:47:00,,0817.2,5.00,0.00,29.8,29.0,00.0,39.0,31.5,10.6,0001.5,0028.60,0008.75,0006.22
2021-10-24 01:48:00,,0817.1,5.00,0.00,29.8,28.9,00.0,39.0,31.5,10.6,0000.1,0029.00,0008.72,0006.18
2021-10-24 01:49:00,,0817.2,4.99,0.00,29.8,29.0,00.0,39.0,31.5,10.6,0000.2,0029.15,0008.65,0006.17
2021-10-24 01:50:00,,0817.2,5.00,0.00,29.8,29.0,00.0,38.9,31.5,10.7,-000.0,0030.76,0008.77,0006.19
2021-10-24 01:51:00,,0817.2,5.01,0.00,29.8,29.0,00.0,38.9,31.6,10.7,0000.4,0031.08,0009.00,0006.32
2021-10-24 01:52:00,,0817.2,5.00,0.00,29.8,29.1,00.0,38.9,31.6,10.7,0001.0,0032.24,0009.26,0006.52
2021-10-24 01:53:00,,0817.3,5.00,0.00,29.9,29.1,00.0,38.9,31.6,10.6,0001.0,0034.26,0009.53,0006.67
2021-10-24 01:54:00,,0817.2,5.01,0.00,29.9,29.1,00.0,39.0,31.7,10.6,0000.8,0033.96,0009.74,0006.80
2021-10-24 01:55:00,,0817.3,4.99,0.00,29.9,29.2,00.0,39.0,31.7,10.6,0001.4,0035.17,0009.92,0006.85
2021-10-24 01:56:00,,0817.3,5.00,0.00,29.9,29.2,00.0,39.0,31.7,10.6,0001.6,0034.61,0009.98,0006.91
2021-10-24 01:57:00,,0817.4,5.02,0.00,29.9,29.2,00.0,39.0,31.8,10.7,0000.2,0034.78,0010.01,0006.97
2021-10-24 01:58:00,,0817.3,5.00,0.00,29.9,29.2,00.0,39.0,31.7,10.8,0000.0,0033.06,0010.06,0007.00
2021-10-24 01:59:00,,0817.3,4.99,0.00,29.9,29.2,00.0,39.0,31.7,10.8,0002.7,0033.49,0010.12,0007.04
